| time (UTC) | temp F | wind direction | speed MPH | gust MPH | rain 1hr in | rain 24hr in | rain mn in | humidity % | barometer mb |
| 20260505165103 | 50 | 0 | 0.0 | 0.0 | 0.00 | 0.06 | 0.06 | 10 | 1006.4 |
| 20260505163101 | 51 | 0 | 0.0 | 0.0 | 0.00 | 0.09 | 0.06 | 10 | 1006.3 |
| 20260505153057 | 51 | 0 | 0.0 | 0.0 | 0.00 | 0.18 | 0.06 | 10 | 1006.6 |
| 20260505140106 | 51 | 0 | 0.0 | 0.0 | 0.00 | 0.21 | 0.06 | 10 | 1006.9 |
| 20260505124056 | 51 | 0 | 0.0 | 0.0 | 0.00 | 0.21 | 0.06 | 10 | 1007.2 |
| 20260505122055 | 52 | 0 | 0.0 | 0.0 | 0.00 | 0.21 | 0.06 | 10 | 1007.2 |
| 20260505111100 | 52 | 0 | 0.0 | 0.0 | 0.02 | 0.21 | 0.06 | 10 | 1007.6 |
| 20260505101100 | 52 | 0 | 0.0 | 0.0 | 0.05 | 0.21 | 0.06 | 10 | 1007.7 |
| 20260505092056 | 52 | 0 | 0.0 | 0.0 | 0.03 | 0.20 | 0.04 | 10 | 1007.8 |
| 20260505074059 | 53 | 0 | 0.0 | 0.0 | 0.00 | 0.17 | 0.01 | 10 | 1007.8 |
| 20260505071059 | 53 | 0 | 0.0 | 0.0 | 0.00 | 0.17 | 0.01 | 10 | 1007.8 |
| 20260505065058 | 53 | 0 | 0.0 | 0.0 | 0.00 | 0.17 | 0.01 | 10 | 1007.9 |
| 20260505060057 | 53 | 0 | 0.0 | 0.0 | 0.00 | 0.17 | 0.01 | 10 | 1007.9 |
| 20260505054057 | 52 | 0 | 0.0 | 0.0 | 0.01 | 0.17 | 0.01 | 10 | 1008.0 |
| 20260505053055 | 52 | 0 | 0.0 | 0.0 | 0.01 | 0.17 | 0.01 | 10 | 1008.1 |
| 20260505051057 | 52 | 0 | 0.0 | 0.0 | 0.01 | 0.17 | 0.01 | 10 | 1008.0 |
| 20260505024055 | 51 | 0 | 0.0 | 0.0 | 0.00 | 0.16 | 0.00 | 10 | 1008.7 |
| 20260505023056 | 51 | 0 | 0.0 | 0.0 | 0.00 | 0.16 | 0.00 | 10 | 1008.7 |
| 20260505020057 | 50 | 0 | 0.0 | 0.0 | 0.00 | 0.16 | 0.00 | 10 | 1008.8 |
| 20260505013038 | 51 | 0 | 0.0 | 0.0 | 0.00 | 0.16 | 0.00 | 10 | 1008.7 |
| 20260505010056 | 51 | 0 | 0.0 | 0.0 | 0.00 | 0.16 | 0.00 | 10 | 1008.9 |
| 20260505005056 | 51 | 0 | 0.0 | 0.0 | 0.00 | 0.16 | 0.00 | 10 | 1009.1 |
| 20260505003022 | 51 | 0 | 0.0 | 0.0 | 0.00 | 0.16 | 0.00 | 10 | 1009.2 |
| 20260505001056 | 51 | 0 | 0.0 | 0.0 | 0.00 | 0.16 | 0.00 | 10 | 1009.4 |
| 20260505000100 | 51 | 0 | 0.0 | 0.0 | 0.00 | 0.16 | 0.00 | 10 | 1009.4 |
| 20260504224104 | 53 | 0 | 0.0 | 0.0 | 0.00 | 0.16 | 0.00 | 10 | 1009.9 |
| 20260504223101 | 53 | 0 | 0.0 | 0.0 | 0.00 | 0.16 | 0.00 | 10 | 1009.9 |
| 20260504213113 | 53 | 0 | 0.0 | 0.0 | 0.00 | 0.16 | 0.16 | 99 | 1010.4 |
| 20260504204113 | 54 | 0 | 0.0 | 0.0 | 0.00 | 0.16 | 0.16 | 98 | 1010.6 |
| 20260504203106 | 54 | 0 | 0.0 | 0.0 | 0.00 | 0.16 | 0.16 | 98 | 1010.6 |
| 20260504202118 | 54 | 0 | 0.0 | 0.0 | 0.00 | 0.16 | 0.16 | 98 | 1010.7 |
| 20260504192106 | 55 | 0 | 0.0 | 0.0 | 0.00 | 0.16 | 0.16 | 94 | 1010.2 |
| 20260504191107 | 56 | 0 | 0.0 | 0.0 | 0.00 | 0.16 | 0.16 | 94 | 1010.2 |
| 20260504185107 | 56 | 0 | 0.0 | 0.0 | 0.00 | 0.16 | 0.16 | 96 | 1010.1 |
| 20260504180107 | 57 | 0 | 0.0 | 0.0 | 0.00 | 0.16 | 0.16 | 93 | 1010.0 |
| 20260504175105 | 57 | 0 | 0.0 | 0.0 | 0.00 | 0.16 | 0.16 | 93 | 1010.0 |
| 20260504172104 | 57 | 0 | 0.0 | 0.0 | 0.04 | 0.16 | 0.16 | 96 | 1010.1 |